Regional Weather Roundup
Issued by NWS

Home | Current Version | Previous Version | Graphics & Text | Print | Product List | Glossary On
Versions: 1 2 3 4 5 6 7 8 9 10 11 12 13 14 15 16 17 18 19 20 21 22 23 24 25 26 27
000
ASUS45 KBOI 261910
RWRID

IDAHO REGIONAL WEATHER ROUNDUP
NATIONAL WEATHER SERVICE BOISE ID
1200 PM MST SUN FEB 26 2017

NOTE: "FAIR" INDICATES FEW OR NO CLOUDS BELOW 12000 FEET
WITH NO SIGNIFICANT WEATHER AND/OR OBSTRUCTIONS TO VISIBILITY

IDZ012-014-262000-
SOUTHWEST IDAHO


CITY           SKY/WX    TMP DP  RH WIND       PRES   REMARKS
BOISE          CLOUDY    35  17  47 SE17      29.80F WCI  25
CALDWELL       CLOUDY    37  19  48 SE17      29.80F WCI  27
MOUNTAIN HOME  CLOUDY    35  19  52 SE18      29.80F WCI  24
$$

IDZ016-017-262000-
SOUTHCENTRAL IDAHO


CITY           SKY/WX    TMP DP  RH WIND       PRES   REMARKS
BURLEY         MOSUNNY   35  14  42 S20       29.81F WCI  24
JEROME           N/A    N/A N/A N/A MISG      29.82F
TWIN FALLS     MOSUNNY   32  17  54 S16       29.79F WCI  21
$$

IDZ019>023-262000-
SOUTHEAST IDAHO


CITY           SKY/WX    TMP DP  RH WIND       PRES   REMARKS
IDAHO FALLS    CLOUDY    19  14  81 N6        29.85F WCI  11
POCATELLO      MOSUNNY   29  15  56 S18       29.84F WCI  16
REXBURG        CLOUDY    19  12  74 NE3       29.84F
$$

IDZ006-010-011-018-031-032-262000-
CENTRAL IDAHO MOUNTAINS


CITY           SKY/WX    TMP DP  RH WIND       PRES   REMARKS
MCCALL         SNOW      23  18  81 SE15      29.66F VSB 1/2 WCI  10
HAILEY         PTSUNNY   21  10  63 SE5       29.81S WCI  15
STANLEY          N/A     22  11  62 SE15G22   29.65F WCI   9
SALMON         CLOUDY    30  10  43 S7        29.72S WCI  23
CHALLIS        CLOUDY    23   9  55 CALM      29.70F
$$

IDZ002-004-006-007-026-262000-
NORTHERN IDAHO


CITY           SKY/WX    TMP DP  RH WIND       PRES   REMARKS
LEWISTON       CLOUDY    35  32  88 NE8       29.75F WCI  29
LOWELL           N/A     33  29  85 CALM      29.80F
COEUR D`ALENE  MIX PCPN  30  27  88 CALM      29.72F
MULLAN PASS    SNOW      17  16  95 CALM      29.55S VSB 1/2
$$




USA.gov is the U.S. government's official web portal to all federal, state and local government web resources and services.